Погода во Введенском

Россия / Курганская область     55°19′26″N   64°04′50″E
темп.,
°C
ветер,
м/с
пор.,
м/с
влажн.,
%
обл.,
%
осадки,
мм/ч
давл.,
гПа
погр.,
м
11 апреля, вс
вс1123:00+2ю379697 0.0 1039181
02:00+2ю4896100 0.0 1039202
05:00+2ю489797 0.0 1039190
08:00+2ю499641 0.0 1039272
11:00+6ююз6979100 0.0 1038406
14:00+8ю61071100 0.0 1037483
17:00+8ююз51074100 0.0 1036410
20:00+5ююз4118343 0.0 1036174
12 апреля, пн
пн1223:00+3ююз4118597 0.0 1036182
02:00+3юз4118678 0.0 1036178
05:00+2юз489040 0.0 1036133
08:00+5зюз358789 0.0 1036119
11:00+10сз3478100 0.0 1036294
14:00+10сз3487100 0.1 1036349
17:00+9с4587100 0.1 1037354
20:00+8с2491100 0.0 1038125
13 апреля, вт
вт1323:00+7ссв3485100 0.0 103863
02:00+5всв3386100 0.0 103942
05:00+4всв228794 0.0 104019
08:00+6вюв238331 0.0 1040107
11:00+11юв33670 0.0 1039580
14:00+13ююв33560 0.0 1038961
17:00+14ю34540 0.0 1036995
20:00+10ююз34710 0.0 103644
14 апреля, ср
ср1423:00+8ююз46780 0.0 103587
02:00+7ююз468440 0.0 103498
05:00+6ююз358761 0.0 103378
08:00+8ююз36825 0.0 1032168
11:00+13юз45695 0.0 1030551
14:00+16юз44596 0.0 1029919
17:00+16юз44565 0.0 10261035
20:00+12юз33725 0.0 102530
15 апреля, чт
чт1523:00+10юз34775 0.0 102558
02:00+9зюз347928 0.0 102360
05:00+8зюз338635 0.0 102237
08:00+10з24825 0.0 1022133
11:00+15з23520 0.0 1020566
14:00+17з34370 0.0 10191170
17:00+17з34340 0.0 10171263
20:00+13зюз22490 0.0 101610